SCP
0 0 0 0 0 0 0 0 1 1 2 2 2 3 6 7 6 4 4 4 4 4 3 3 4 4 4 4 5 6 6 6 5 3 3 2 2 1 2 2 3 3 3 2
0 0 0 0 0 0 0 1 1 1 2 2 3 4 5 6 6 5 5 5 6 5 4 4 4 4 5 5 6 6 6 6 5 4 3 2 2 2 2 3 3 3 2 2
0 0 0 0 0 1 1 2 2 2 2 3 4 4 5 5 5 5 5 6 7 6 5 4 4 5 6 7 7 7 6 6 5 4 3 3 3 3 4 4 3 3 2 2
0 0 0 0 1 1 2 3 4 3 3 5 5 5 5 4 5 5 5 6 7 6 6 6 6 7 8 9 8 7 6 5 5 5 4 4 4 4 5 5 4 3 2 2
0 0 0 0 1 2 3 5 6 5 5 6 6 6 5 4 5 5 5 6 6 6 8 10 10 11 12 11 9 7 6 6 5 5 5 5 5 5 6 6 6 4 3 3
0 0 0 1 1 2 3 4 6 6 6 6 6 5 4 4 5 5 5 6 7 9 11 12 13 14 13 11 9 8 7 7 7 7 6 6 6 6 7 7 6 5 4 4
0 0 0 1 1 1 2 3 3 4 5 6 5 5 5 6 6 7 7 8 10 11 12 12 14 14 12 10 9 9 9 9 9 8 8 7 7 7 8 8 7 5 5 5
0 0 0 1 1 1 1 2 2 3 4 5 6 6 8 10 11 10 10 12 15 15 13 13 14 14 12 10 10 11 11 10 10 9 9 8 8 9 9 8 7 6 5 5
1 1 1 1 1 1 1 2 3 4 5 6 8 9 11 12 14 14 15 19 22 21 18 17 16 15 13 13 13 13 12 10 9 9 9 9 10 11 11 9 7 6 5 4
1 1 1 1 1 2 2 3 4 5 7 8 9 11 12 13 14 17 22 27 30 28 24 21 19 17 15 15 14 13 12 10 9 9 10 11 12 13 12 10 7 6 4 4
2 2 2 2 3 4 5 6 6 8 9 9 9 10 12 13 14 17 26 33 35 33 28 23 19 16 15 15 15 14 11 10 9 9 10 11 12 12 11 9 6 5 4 4
1 1 2 2 4 6 7 8 9 9 9 8 8 8 10 11 12 14 22 32 37 35 29 23 17 14 14 15 15 14 12 10 8 8 9 10 10 10 9 7 4 3 3 3
1 1 2 2 4 6 7 8 9 10 8 7 6 6 7 8 9 11 17 26 31 30 26 22 17 14 13 13 13 13 11 10 8 7 7 8 9 10 10 8 6 3 2 1
1 2 2 4 5 7 8 8 9 9 9 7 6 6 6 7 8 9 13 18 22 22 21 20 18 16 14 12 12 11 10 10 9 8 6 6 7 9 12 12 10 6 2 1
2 3 5 7 9 9 9 9 8 9 9 7 7 6 6 7 8 9 12 14 16 16 15 16 16 15 13 12 11 10 10 10 10 8 6 4 5 7 10 13 13 10 4 1
3 5 9 11 11 10 9 9 8 8 7 6 6 7 7 8 9 10 11 12 12 11 10 10 10 10 9 9 9 9 10 10 9 8 6 4 4 5 7 11 13 11 6 3
4 6 10 11 11 9 8 7 8 7 6 5 5 7 8 9 9 9 9 8 8 7 7 6 5 5 5 6 7 9 10 10 9 8 6 5 4 4 5 8 10 10 7 3
3 4 6 7 7 7 6 5 6 6 6 5 5 5 6 7 7 6 5 5 5 4 4 3 3 3 3 4 6 8 9 9 8 7 6 4 3 3 4 5 7 8 6 3
3 3 5 5 5 5 5 4 4 5 6 5 5 5 5 4 4 3 3 3 3 3 2 2 2 2 2 3 5 7 8 8 7 6 4 3 2 2 2 3 4 5 5 3
3 4 5 5 5 5 6 5 5 6 6 6 6 5 4 4 3 3 3 2 2 2 2 1 1 2 2 3 4 5 6 6 5 4 3 2 2 1 2 2 3 4 4 3
3 4 5 5 6 7 7 7 8 8 7 7 6 5 5 4 4 3 3 2 2 2 2 1 2 2 2 2 2 3 3 3 3 3 2 2 2 1 2 2 3 3 3 2
2 3 5 7 8 9 10 10 10 10 9 8 7 5 5 4 4 4 3 3 2 2 2 2 2 2 2 2 2 2 2 2 3 2 2 2 2 2 2 2 2 2 2 2
2 3 5 8 10 11 12 12 12 11 10 8 7 6 5 5 4 4 3 3 3 2 2 1 1 1 2 2 2 2 2 2 2 2 2 1 2 2 1 1 1 1 1 1
3 4 6 9 11 12 13 13 14 13 11 9 7 6 5 5 5 4 4 3 2 2 1 1 1 1 1 1 2 2 2 1 2 2 1 1 1 1 1 1 0 0 0 0
4 5 7 8 9 10 12 15 16 15 12 9 7 6 5 5 5 4 3 2 1 1 1 1 1 0 1 1 1 1 1 1 1 1 1 1 1 1 1 0 0 0 0 0
4 4 4 5 4 5 7 11 14 14 11 8 7 5 5 4 4 4 3 2 1 1 1 1 1 0 0 1 1 1 1 1 1 1 1 1 1 1 1 0 0 0 0 0
2 2 2 2 1 2 3 7 10 11 10 7 6 5 4 4 4 3 2 2 2 1 1 1 1 0 0 1 1 1 1 1 1 1 1 1 1 1 0 0 0 0 0 0
Wind_Speed
4 4 2 1 3 1 2 6 7 7 6 7 8 9 9 8 8 7 6 6 7 7 6 7 8 7 8 8 8 9 8 8 7 6 5 4 4 3 3 3 3 3 3 3
2 2 1 2 3 2 2 3 4 4 4 5 5 6 6 7 8 8 7 7 6 7 7 7 8 9 8 8 8 8 9 8 7 7 6 5 5 4 3 3 2 3 3 3
2 4 4 4 4 3 2 2 6 6 7 3 5 7 8 9 9 8 8 7 7 7 7 7 8 9 10 9 8 8 8 8 8 7 7 6 6 5 4 3 3 3 3 3
1 3 3 9 4 3 3 1 2 4 4 7 8 8 6 7 9 7 7 7 6 6 6 6 6 6 6 7 8 7 7 8 8 8 7 6 5 5 4 3 4 3 3 3
3 2 5 7 3 1 3 2 1 4 4 5 6 6 2 3 5 7 8 7 6 5 5 4 5 6 7 6 7 7 7 8 7 8 7 7 7 6 5 4 4 3 3 4
4 3 5 7 6 2 5 1 3 2 4 4 5 4 4 4 4 4 4 4 5 4 5 4 4 5 7 7 7 7 7 7 7 8 8 8 8 6 4 4 4 4 3 3
4 3 7 7 6 4 4 6 3 2 3 4 3 6 6 5 4 4 4 4 5 6 5 5 5 6 6 6 7 6 5 6 6 7 7 7 6 5 5 5 4 4 3 3
4 4 8 5 3 3 6 4 1 2 3 3 2 2 3 5 5 5 5 4 5 5 4 4 5 6 5 5 5 4 5 5 5 6 6 6 6 5 5 6 5 4 4 2
8 8 7 2 3 3 3 2 1 2 2 4 4 2 2 3 4 4 4 4 4 5 4 4 4 5 5 4 4 5 5 6 6 6 5 5 6 6 5 5 5 4 4 4
1 3 3 1 1 1 1 2 1 2 3 3 3 2 2 3 3 4 4 4 3 4 4 4 4 4 4 4 5 5 6 6 5 5 5 4 4 5 5 5 5 5 5 4
1 2 2 2 0 1 1 2 2 2 1 2 4 3 3 3 3 4 4 4 4 4 4 4 4 3 4 4 5 5 6 5 5 5 5 5 3 2 3 3 5 7 6 5
5 5 3 4 3 1 1 0 1 2 1 1 3 3 2 2 3 4 4 4 4 4 4 3 3 3 3 4 5 6 5 5 4 4 4 4 4 3 4 2 3 6 7 7
6 5 4 4 3 1 1 2 2 2 3 3 3 3 3 3 2 3 3 3 4 4 4 4 4 3 3 3 4 5 5 5 5 5 5 5 5 5 3 2 4 3 5 7
3 1 2 3 3 2 2 2 1 1 2 3 3 3 3 3 3 3 4 4 3 4 4 4 4 4 4 3 4 4 5 6 6 5 5 5 5 5 5 5 4 2 2 5
4 3 5 4 3 2 2 1 0 2 3 2 2 3 4 4 4 4 3 3 3 3 3 3 4 4 4 4 5 5 5 4 5 5 5 5 5 5 4 5 5 4 3 2
4 3 2 2 3 3 2 2 3 4 3 3 3 4 4 4 4 3 3 4 4 4 4 4 4 4 4 4 5 4 4 7 6 5 4 4 4 5 4 5 5 5 5 5
3 3 3 3 3 3 3 4 4 5 4 4 5 4 4 4 3 3 3 4 4 5 4 5 5 4 4 5 5 4 4 5 7 5 5 5 4 5 5 5 5 5 5 6
4 5 4 4 4 4 3 3 3 4 5 5 5 4 5 6 6 5 5 4 4 3 4 5 5 5 5 5 5 4 5 4 4 5 4 4 4 4 5 5 6 6 4 5
3 2 2 3 3 3 4 4 3 4 4 4 4 6 6 6 6 6 5 5 6 5 5 5 6 5 5 6 6 4 5 5 4 4 4 6 5 4 4 5 5 5 6 5
2 2 2 2 2 2 2 3 3 3 3 3 4 4 5 5 5 5 5 5 5 5 4 4 4 4 5 6 6 4 5 5 5 4 5 5 5 5 5 5 5 6 6 6
2 1 1 1 2 2 2 2 1 2 1 2 4 4 4 4 4 5 4 3 3 3 4 4 3 4 4 4 5 4 4 4 5 5 5 5 5 5 5 5 5 5 6 6
2 1 1 1 1 2 2 1 1 1 1 1 2 3 4 3 3 3 3 3 3 3 3 3 3 4 5 5 4 4 4 4 4 4 5 5 5 5 5 5 5 5 5 6
2 2 1 1 1 2 2 1 1 1 1 2 2 3 4 3 3 3 3 2 3 4 3 2 3 5 6 4 4 4 4 4 4 4 4 5 5 5 5 5 5 5 6 5
2 2 2 2 2 1 1 2 1 1 1 1 2 3 3 3 1 1 2 3 4 4 3 3 4 5 5 3 3 3 3 3 4 4 4 4 5 5 4 4 4 5 5 6
2 2 2 2 2 2 2 1 0 0 0 0 0 1 2 2 2 2 2 3 4 4 2 3 5 5 4 3 3 4 3 4 4 4 4 4 5 5 5 4 5 5 5 5
2 2 2 1 1 1 1 0 0 1 1 0 0 0 1 1 2 2 1 2 3 4 3 2 3 4 3 3 3 4 4 4 4 4 4 4 5 5 5 5 6 5 5 4
2 2 2 2 2 1 0 0 1 1 1 1 1 1 1 1 2 2 2 1 2 2 2 2 2 3 3 3 3 3 3 3 3 3 4 4 4 4 5 6 5 4 4 5
Wind_Direction
212 221 191 261 282 259 165 178 175 207 198 209 187 174 170 160 151 148 151 150 154 157 161 166 167 169 169 169 169 168 166 169 176 175 169 164 161 161 151 145 144 138 129 118
340 329 8 322 297 254 222 183 172 171 224 222 170 141 145 151 149 151 159 158 159 160 161 171 172 172 171 172 173 168 170 175 175 169 168 168 166 160 149 140 134 127 130 128
292 319 28 279 236 206 203 201 166 189 225 169 122 142 168 164 159 164 167 163 160 165 172 180 179 175 178 175 167 167 172 175 175 172 173 176 171 158 158 156 144 139 142 138
120 41 225 245 247 176 152 195 178 167 167 151 159 168 163 158 157 159 158 160 166 168 176 189 178 160 159 162 164 169 173 176 176 174 173 168 162 164 169 164 163 168 166 163
120 167 273 294 307 156 141 293 311 141 139 138 132 98 76 177 163 166 164 162 167 168 164 166 162 157 153 161 161 166 178 179 175 172 169 167 170 175 180 171 170 177 176 171
131 158 226 255 292 311 102 316 319 107 140 137 109 114 227 218 176 157 152 145 140 133 124 140 172 164 164 167 169 178 185 184 175 170 169 174 177 179 180 171 175 171 169 175
156 197 252 261 297 39 116 226 273 132 130 131 160 197 207 181 165 146 138 141 135 136 147 164 170 162 160 170 184 188 177 170 171 172 173 173 174 175 167 164 159 157 159 168
155 192 248 282 38 133 205 224 206 151 145 137 123 115 144 144 147 140 132 133 138 140 155 164 157 154 162 179 185 166 158 167 177 175 177 174 168 169 167 163 158 159 154 151
180 206 230 239 168 197 167 149 163 149 151 126 113 105 134 130 139 144 145 148 149 148 153 163 161 158 168 184 163 163 167 178 183 179 177 170 170 170 168 167 167 172 168 169
152 248 239 225 97 60 111 132 154 138 135 123 125 140 137 135 145 156 159 159 153 145 150 167 171 169 174 173 161 163 179 184 178 171 167 161 164 171 172 176 175 176 175 172
223 260 322 322 67 113 59 62 73 81 102 155 144 154 163 169 174 180 170 167 164 163 165 177 176 177 174 168 161 168 175 174 169 168 164 155 149 156 180 192 188 179 180 171
224 232 200 243 247 174 104 324 147 106 355 282 179 176 180 190 197 182 174 168 168 169 166 175 176 182 181 173 169 170 174 171 165 161 159 155 148 117 60 112 154 176 174 169
222 240 222 240 257 247 225 223 203 189 207 241 234 189 185 198 200 177 168 169 177 178 175 175 178 185 188 175 173 178 182 176 167 162 161 163 162 158 148 77 77 119 158 166
247 233 279 268 261 264 238 238 225 226 238 224 216 208 187 179 181 177 183 189 190 182 176 176 180 198 199 180 178 186 183 178 171 169 167 167 171 172 167 160 155 150 149 161
258 217 222 249 263 269 259 224 225 276 272 252 217 191 176 172 185 196 196 186 175 182 190 183 186 211 202 184 180 184 179 175 171 167 166 169 170 170 171 168 165 157 142 144
262 247 227 233 247 251 240 212 213 239 233 227 219 211 195 186 187 188 188 181 178 199 210 198 204 214 197 185 182 182 178 175 170 165 164 169 169 169 171 166 163 164 167 166
257 261 253 247 243 247 243 232 222 224 221 226 222 206 186 174 174 184 197 197 199 207 212 207 215 211 196 186 183 182 175 173 172 168 170 173 174 176 176 168 167 173 178 170
230 231 222 221 231 241 254 259 237 227 226 223 211 195 188 186 191 196 197 200 210 222 223 217 213 202 197 190 183 174 168 169 170 169 169 168 171 174 173 169 170 171 164 160
236 241 248 252 258 256 258 260 258 248 240 221 207 207 207 202 194 193 191 197 204 215 231 219 204 195 194 192 180 166 166 168 167 167 167 166 169 172 173 172 173 171 163 159
264 266 264 276 274 256 266 282 275 258 241 210 199 196 198 197 191 194 195 204 215 218 211 198 189 187 184 180 175 170 169 170 170 169 167 165 167 173 177 178 177 172 168 169
288 276 276 283 297 295 279 270 261 252 230 180 174 180 192 196 189 184 180 206 239 213 184 181 184 181 173 166 166 165 165 165 166 169 169 169 172 176 175 174 174 173 171 170
318 325 321 320 316 295 289 276 250 235 198 178 169 173 179 191 184 173 184 196 203 187 174 177 181 171 166 164 164 164 165 166 168 169 174 174 176 177 175 173 171 170 167 168
328 322 310 303 280 273 292 297 266 217 185 201 197 193 185 189 186 179 198 205 172 166 167 175 176 171 170 164 161 165 168 171 173 173 174 173 174 175 176 175 172 167 165 169
309 321 318 310 319 341 327 302 290 272 221 212 201 188 173 164 170 203 181 175 168 161 163 165 163 162 166 164 161 164 169 173 172 168 166 165 164 166 169 171 172 172 171 172
314 333 338 342 339 307 275 275 332 337 178 154 172 178 176 172 171 183 176 170 168 164 164 162 160 163 168 169 165 168 175 177 169 163 164 163 165 168 171 173 174 174 175 175
310 311 310 301 273 282 285 246 197 204 158 151 242 193 152 140 147 165 176 174 169 169 167 161 161 165 169 169 173 174 172 169 167 169 169 169 170 171 173 176 177 178 175 174
321 326 337 340 324 319 313 196 213 204 158 160 188 189 152 146 149 149 153 160 164 172 173 167 165 163 163 166 168 167 164 164 166 169 171 171 169 171 174 173 174 172 169 167